Starlink 31033

operational
NORAD ID: 58723 Int'l Des: 2024-002 Owner: SPXS Country: US Constellation: starlink
LEOCIRCULAR

Über Starlink 31033

Beschreibung wird geladen...

Live-Position

3D-Globus wird geladen...

Nächste Überflüge

Höhenverlauf

Altitude vs Time

uPlot chart will show altitude changes over time

Zweizeiliger Elementsatz

1 58723U 24002U 25304.87673830 .00006005 00000-0 21474-3 0 9991
2 58723 53.1595 108.2415 0001181 57.9589 302.1526 15.30193261102294
Epoch: 31. Okt. 2025 • Age: 24 hours

Aktueller Status

Höhe 483.3 km
Geschwindigkeit 7.62 km/s
Subsatellitenpunkt -25.28°S, 59.47°W
Startdatum 3. Jan. 2024
Alter 1.8 years
Typ internet

Technische Details

Klassifizierung Payload
Masse 730.00 kg
Trockenmasse 700.00 kg
Gesamtmasse 730.00 kg
Länge 0.30 m
Durchmesser 4.10 m
Spannweite 29.00 m
Form Box + pan
Hersteller SPXS
Bus-Typ Starlink V2M
Phasenstatus In Orbit
Besitzer/Staat SPXS/US

Große Konstellationen

Loading constellations...